Regional Weather Roundup
Issued by NWS Goodland, KS

Home | Current Version | Previous Version | Graphics & Text | Print | Product List | Glossary On
Versions: 1 2 3 4 5 6 7 8 9 10 11 12 13 14 15 16 17 18 19 20 21 22 23 24 25 26 27 28 29 30 31 32 33 34 35 36 37 38 39 40 41 42 43 44 45 46 47 48 49 50
000
ASUS43 KGLD 230059
RWRGLD

GOODLAND FORECAST AREA HOURLY WEATHER ROUNDUP
NATIONAL WEATHER SERVICE GOODLAND KS
700 PM MDT MON AUG 22 2016

...OFFICIAL OBSERVATIONS...

CITY           SKY/WX    TMP DP  RH WIND       PRES   REMARKS
GOODLAND KS    PTCLDY    79  57  46 S25G37    29.88S
HILL CITY KS   PTCLDY    83  57  41 SE13G22   29.89F
IMPERIAL NEB   PTCLDY    83  56  39 S15       29.85S
MCCOOK NEB     CLOUDY    84  58  40 S18G25    29.86R
AKRON CO       CLOUDY    83  48  29 S7        29.90S
BURLINGTON CO  CLEAR     83  53  35 S21       29.89F
LIMON CO       CLEAR     80  41  24 CALM      29.94S
$$

...UNOFFICIAL OBSERVATIONS...

CITY           SKY/WX    TMP DP  RH WIND       PRES   REMARKS
COLBY KS       CLEAR     82  61  47 SE17G25   29.91R
LENORA KS        N/A     82  32  16 MISG        N/A
NORTON KS      CLEAR     82  46  28 SE15G21   29.88S
SHARON SPRINGS   N/A     78  62  57 SE20        N/A
TRENTON NEB      N/A     84  32  15 MISG        N/A
KIT CARSON CO    N/A     84  54  35 MISG        N/A
YUMA CO          N/A     81  57  43 CALM        N/A
$$




USA.gov is the U.S. government's official web portal to all federal, state and local government web resources and services.